Location: Clyde
(45.1830°S, 169.3170°E)
Time: 11:30:03
(UTC+12:00)

Cosmos 2151 - Pass Details

Date: 14 May 2021
Orbit: 580 x 602 km, 82.5° (Epoch: 15 June)

Event Time Altitude Azimuth Distance (km) Brightness Sun altitude
Rises 18:58:35 0° 11° (N) 2,797 6.4 -16.5°
Reaches altitude 10° 19:00:51 10° 18° (NNE) 1,907 5.5 -16.9°
Maximum altitude 19:04:48 41° 88° (E) 868 3.3 -17.6°
Enters shadow 19:05:43 36° 120° (ESE) 957 3.5 -17.7°
